[[{"header":{"parameterUnit":"m.s-1","parameterCategory":1,"la1":30.2991,"la2":30.254,"lo1":-89.0895,"lo2":-89.0444,"dy":0.0017,"dx":0.0017,"nx":28,"ny":28,"refTime":"2025-05-25T09:00:00:Z","depth":0,"parameterNumber":2,"parameterNumberName":"U-component_of_WINDS"},"data":[0,0,0,0,0,0,0,0,0,0,0,0,0,0,0,0,0,0,0,0,0,0,0,0,0,0,0,0,0,0,0,0,0,0,0,0,0,0,0,0,0,0,0,0,0,0,0,0,0,0,0,0,0,0,0,0,0,0,-1.3952,-1.3952,0,-1.3942,-1.3941,-1.3941,-1.3914,-1.3913,-1.3912,-1.3912,-1.3903,-1.3903,-1.3903,0,0,0,0,0,0,0,0,0,0,0,0,0,-1.3949,-1.3949,-1.3952,-1.3952,-1.3951,-1.3942,-1.3941,-1.3941,-1.3914,-1.3913,-1.3912,-1.3912,-1.3903,-1.3903,-1.3904,0,0,0,0,0,0,0,0,0,0,0,0,0,-1.3946,-1.3949,-1.3952,-1.3936,-1.3935,-1.3942,-1.3941,-1.3941,-1.3914,-1.3913,-1.3912,-1.3911,-1.3903,-1.3903,-1.3904,-1.3925,0,0,-1.3905,-1.3905,0,0,0,0,0,0,0,0,-1.3946,-1.3946,-1.3939,-1.3938,-1.3936,-1.3928,-1.3937,-1.3936,-1.3914,-1.3922,-1.3912,-1.3911,-1.3912,-1.3912,-1.3912,-1.3924,-1.3924,-1.3905,-1.3905,-1.3906,-1.3906,0,0,0,0,0,0,0,-1.3946,-1.3946,-1.3948,-1.3939,-1.3937,-1.3931,-1.3929,-1.3937,-1.3922,-1.3921,-1.3919,-1.3918,-1.3911,-1.3911,-1.3911,-1.3924,-1.3905,-1.3905,-1.3906,-1.3906,-1.3952,-1.3953,0,0,0,0,0,0,-1.3948,-1.3947,-1.3948,-1.3947,-1.3939,-1.3931,-1.393,-1.3931,-1.3922,-1.392,-1.3919,-1.3917,-1.3911,-1.3911,-1.3911,-1.3934,-1.3906,-1.3906,-1.3906,-1.3951,-1.3953,-1.3954,0,0,0,0,0,0,-1.3948,-1.3949,-1.3948,-1.3946,-1.3946,-1.3932,-1.3934,-1.3932,-1.3932,-1.392,-1.3918,-1.3922,-1.391,-1.391,-1.3921,-1.3933,-1.3906,-1.3907,-1.395,-1.3952,-1.3953,-1.3981,0,0,0,0,0,0,-1.3948,-1.3949,-1.3956,-1.3947,-1.3946,-1.3958,-1.3935,-1.3932,-1.3933,-1.393,-1.3922,-1.392,-1.391,-1.3921,-1.3922,-1.3934,-1.3907,-1.3949,-1.3951,-1.3953,-1.3979,-1.3983,-1.3987,0,0,0,0,0,-1.3948,-1.3965,-1.3957,-1.3957,-1.3955,-1.3959,-1.3959,-1.3946,-1.3934,-1.3941,-1.3934,-1.392,-1.3932,-1.3922,-1.3923,-1.3935,-1.3948,-1.395,-1.3952,-1.3977,-1.3982,-1.3987,0,0,0,0,0,0,-1.3977,-1.3963,-1.3954,-1.3968,-1.3965,-1.3954,-1.3963,-1.3952,-1.3952,-1.395,-1.3934,-1.3933,-1.3946,-1.3942,-1.393,-1.3955,-1.3938,-1.3941,-1.3957,-1.3961,-1.3965,-1.3966,-1.3907,0,0,0,0,0,-1.3985,-1.3989,-1.3977,-1.3991,-1.3989,-1.3977,-1.3978,-1.3968,-1.3965,-1.3963,-1.3957,-1.3954,-1.3957,-1.3959,-1.3962,-1.3979,-1.3977,-1.3988,-1.3992,-1.3995,-1.3997,-1.4006,-1.401,-1.3961,-1.3961,-1.396,0,0,-1.4001,-1.3994,-1.3998,-1.3996,-1.3992,-1.3997,-1.3976,-1.3982,-1.3985,-1.3964,-1.3974,-1.3969,-1.3965,-1.3979,-1.3985,-1.3976,-1.4011,-1.3998,-1.4001,-1.4001,-1.4008,-1.4013,-1.4017,-1.3962,-1.3962,-1.3962,0,0,-1.4033,-1.4028,-1.4038,-1.4035,-1.403,-1.4021,-1.4024,-1.4015,-1.4011,-1.4021,-1.4005,-1.4009,-1.4015,-1.4012,-1.4012,-1.4044,-1.4031,-1.4045,-1.4065,-1.4074,-1.4078,-1.4081,-1.4092,-1.4096,-1.4047,-1.4047,-1.4047,0,-1.4053,-1.4059,-1.4045,-1.4052,-1.4052,-1.4033,-1.4043,-1.4041,-1.4037,-1.4038,-1.4028,-1.4035,-1.4031,-1.4044,-1.4051,-1.4052,-1.4054,-1.4045,-1.4078,-1.4082,-1.4084,-1.4094,-1.4098,-1.4049,-1.4049,-1.4049,-1.4049,0,-1.4085,-1.409,-1.4099,-1.4094,-1.4095,-1.4104,-1.4092,-1.4095,-1.4085,-1.4078,-1.4088,-1.4083,-1.4083,-1.4086,-1.4077,-1.4098,-1.4092,-1.4081,-1.4063,-1.4091,-1.41,-1.4104,-1.4051,-1.4051,-1.405,-1.405,0,0,-1.4133,-1.4121,-1.4125,-1.4122,-1.4115,-1.4119,-1.4127,-1.4127,-1.413,-1.4128,-1.4134,-1.414,-1.4129,-1.4129,-1.412,-1.4127,-1.4152,-1.4115,-1.4114,-1.4121,-1.4173,-1.4181,-1.4186,-1.4144,-1.4145,-1.4145,-1.4173,0,-1.4162,-1.4174,-1.4162,-1.4177,-1.4181,-1.4164,-1.4171,-1.4168,-1.4161,-1.4164,-1.4158,-1.4161,-1.4147,-1.4147,-1.4154,-1.4147,-1.4162,-1.4145,-1.4149,-1.415,-1.4149,-1.419,-1.4199,-1.4225,-1.4177,-1.4177,-1.4178,0,-1.4197,-1.4196,-1.4211,-1.4203,-1.4204,-1.4211,-1.421,-1.4213,-1.4209,-1.4204,-1.4204,-1.4193,-1.4201,-1.4185,-1.4195,-1.4184,-1.4186,-1.4183,-1.4184,-1.4182,-1.4164,-1.4189,-1.4234,-1.4237,-1.4183,-1.4183,-1.4182,0,-1.423,-1.4232,-1.4242,-1.424,-1.4231,-1.4236,-1.4233,-1.4228,-1.4229,-1.4229,-1.4229,-1.423,-1.423,-1.4232,-1.4221,-1.4211,-1.4233,-1.4216,-1.4229,-1.4229,-1.4233,-1.4233,-1.4277,-1.4236,-1.4236,-1.4236,-1.4236,0,-1.4263,-1.4272,-1.4256,-1.4261,-1.4272,-1.4258,-1.4269,-1.4264,-1.426,-1.4265,-1.4251,-1.4256,-1.4242,-1.4245,-1.4238,-1.4247,-1.4248,-1.4244,-1.4241,-1.4244,-1.4245,-1.4244,-1.4242,-1.4237,-1.4237,-1.4237,-1.4236,0,-1.43,-1.4289,-1.4298,-1.4289,-1.4287,-1.4295,-1.4287,-1.4292,-1.4285,-1.4291,-1.4292,-1.4281,-1.4285,-1.4275,-1.4277,-1.4272,-1.4285,-1.428,-1.4286,-1.4284,-1.4297,-1.4296,-1.4342,-1.4347,-1.4303,-1.4304,-1.4304,0,-1.4321,-1.4328,-1.4319,-1.4321,-1.4318,-1.4321,-1.4322,-1.4309,-1.4311,-1.4307,-1.4313,-1.4315,-1.4315,-1.4322,-1.4314,-1.4316,-1.431,-1.4327,-1.4311,-1.4313,-1.4309,-1.4309,-1.4309,-1.4329,-1.433,-1.433,-1.4331,0,-1.436,-1.4354,-1.4355,-1.4354,-1.4355,-1.4354,-1.4353,-1.4355,-1.4341,-1.4344,-1.4347,-1.4347,-1.4349,-1.4351,-1.4351,-1.4348,-1.4337,-1.4336,-1.4339,-1.4341,-1.4344,-1.4342,-1.4294,-1.4335,-1.4334,-1.4334,-1.4334,-1.4334,-1.4389,-1.4394,-1.4388,-1.439,-1.4387,-1.4386,-1.439,-1.4383,-1.4385,-1.4385,-1.4378,-1.4382,-1.4379,-1.4377,-1.4376,-1.4379,-1.4372,-1.4376,-1.4377,-1.4378,-1.438,-1.4344,-1.4379,-1.4379,-1.4379,-1.4379,-1.4379,0,-1.4426,-1.4421,-1.4423,-1.442,-1.4422,-1.4411,-1.4409,-1.4411,-1.4414,-1.4412,-1.4413,-1.4416,-1.4418,-1.4411,-1.4412,-1.4416,-1.4411,-1.4417,-1.4416,-1.4416,-1.4387,-1.4383,-1.4421,-1.4421,-1.4421,-1.4421,-1.4421,-1.4421,-1.4445,-1.4453,-1.4447,-1.4453,-1.4449,-1.4452,-1.4452,-1.445,-1.4448,-1.4452,-1.4454,-1.4449,-1.4445,-1.4445,-1.4447,-1.4445,-1.4445,-1.4453,-1.4449,-1.4422,-1.4418,-1.4414,-1.4411,-1.4453,-1.4453,-1.4477,-1.4478,-1.4478]},{"header":{"parameterUnit":"m.s-1","parameterCategory":1,"la1":30.2991,"la2":30.254,"lo1":-89.0895,"lo2":-89.0444,"dy":0.0017,"dx":0.0017,"nx":28,"ny":28,"refTime":"2025-05-25T09:00:00:Z","depth":0,"parameterNumber":3,"parameterNumberName":"V-component_of_WINDS"},"data":[0,0,0,0,0,0,0,0,0,0,0,0,0,0,0,0,0,0,0,0,0,0,0,0,0,0,0,0,0,0,0,0,0,0,0,0,0,0,0,0,0,0,0,0,0,0,0,0,0,0,0,0,0,0,0,0,0,0,4.9589,4.9589,0,4.9653,4.9654,4.9654,4.9678,4.9678,4.9677,4.9677,4.9737,4.9739,4.974,0,0,0,0,0,0,0,0,0,0,0,0,0,4.9481,4.9483,4.9589,4.959,4.959,4.9653,4.9654,4.9655,4.9678,4.9678,4.9677,4.9677,4.9736,4.9738,4.974,0,0,0,0,0,0,0,0,0,0,0,0,0,4.9535,4.9484,4.9589,4.961,4.9612,4.9653,4.9654,4.9655,4.9678,4.9678,4.9677,4.9677,4.9736,4.9738,4.9741,4.9763,0,0,4.9749,4.975,0,0,0,0,0,0,0,0,4.9532,4.9539,4.9606,4.9608,4.9611,4.9657,4.9638,4.9691,4.9678,4.9653,4.9677,4.9677,4.971,4.9715,4.9727,4.9766,4.9769,4.9749,4.9751,4.9752,4.9753,0,0,0,0,0,0,0,4.9528,4.9536,4.9614,4.9607,4.961,4.9614,4.9622,4.9648,4.9682,4.9655,4.9657,4.9664,4.9712,4.9725,4.9729,4.9769,4.9749,4.9751,4.9753,4.9754,4.9831,4.9832,0,0,0,0,0,0,4.9522,4.9533,4.9612,4.9616,4.957,4.9616,4.9625,4.9643,4.9682,4.9688,4.9665,4.9665,4.972,4.9726,4.9731,4.9761,4.9752,4.9754,4.9756,4.9831,4.9831,4.9832,0,0,0,0,0,0,4.9519,4.9528,4.9609,4.9575,4.9586,4.9619,4.9639,4.9644,4.9657,4.9689,4.9695,4.9672,4.972,4.9727,4.9756,4.9764,4.9756,4.9758,4.983,4.9831,4.9832,4.9821,0,0,0,0,0,0,4.9516,4.9527,4.9537,4.9575,4.9587,4.9634,4.9639,4.9645,4.9663,4.9664,4.9698,4.9703,4.9721,4.9752,4.9759,4.9767,4.976,4.983,4.9831,4.9831,4.9821,4.9821,4.9822,0,0,0,0,0,4.9512,4.953,4.9538,4.9547,4.9601,4.9635,4.9642,4.9663,4.9663,4.9673,4.9694,4.9702,4.9762,4.9755,4.9762,4.9772,4.9829,4.983,4.9831,4.9821,4.9821,4.9822,0,0,0,0,0,0,4.9489,4.9535,4.9544,4.9575,4.9601,4.9639,4.9651,4.9663,4.9687,4.9687,4.9711,4.9719,4.9745,4.9761,4.9752,4.9796,4.9796,4.9799,4.9785,4.9786,4.9786,4.9782,4.9762,0,0,0,0,0,4.9488,4.9514,4.9552,4.9575,4.9588,4.9618,4.9633,4.9648,4.9675,4.9685,4.9708,4.9732,4.9757,4.9772,4.9796,4.9823,4.9831,4.9834,4.9834,4.9834,4.9836,4.9853,4.9855,4.9835,4.9835,4.9835,0,0,4.9486,4.9514,4.9528,4.9572,4.9594,4.9619,4.9627,4.9652,4.967,4.9688,4.9718,4.9735,4.9764,4.9792,4.9806,4.9806,4.9843,4.9836,4.9835,4.9837,4.9854,4.9856,4.9857,4.9836,4.9836,4.9836,0,0,4.9494,4.9518,4.9541,4.9564,4.9598,4.9618,4.9623,4.966,4.9673,4.9703,4.9718,4.9739,4.978,4.9801,4.9816,4.9835,4.9844,4.9842,4.9843,4.9859,4.9861,4.9863,4.987,4.9872,4.9843,4.9843,4.9843,0,4.9486,4.9526,4.9551,4.9577,4.9596,4.9616,4.9639,4.9659,4.9698,4.971,4.9711,4.9765,4.9785,4.9819,4.9824,4.9836,4.9842,4.9838,4.9859,4.9861,4.9863,4.987,4.9872,4.9843,4.9843,4.9843,4.9843,0,4.9514,4.9542,4.9556,4.9597,4.9617,4.9641,4.9669,4.9686,4.97,4.9719,4.975,4.9776,4.9806,4.9815,4.9827,4.9851,4.9851,4.9855,4.9855,4.9864,4.9871,4.9874,4.9842,4.9842,4.9843,4.9843,0,0,4.9509,4.9565,4.957,4.959,4.963,4.9651,4.9675,4.9708,4.9723,4.9749,4.977,4.9806,4.9811,4.9829,4.9843,4.9857,4.9871,4.986,4.9861,4.9862,4.9901,4.9898,4.99,4.9878,4.9878,4.9879,4.9898,0,4.9523,4.9571,4.9596,4.9633,4.9659,4.9679,4.9701,4.9727,4.9746,4.977,4.979,4.9815,4.9819,4.9831,4.9845,4.9866,4.9879,4.9865,4.9897,4.9898,4.989,4.9904,4.99,4.9918,4.9901,4.9902,4.9902,0,4.9545,4.9575,4.9616,4.9655,4.9667,4.9686,4.9719,4.9741,4.9771,4.9784,4.9805,4.982,4.9846,4.9845,4.9881,4.9871,4.9885,4.9898,4.9899,4.9903,4.9901,4.9908,4.9924,4.9926,4.9907,4.9906,4.9906,0,4.9538,4.9588,4.962,4.9635,4.9681,4.9695,4.9714,4.9744,4.9763,4.979,4.9803,4.9832,4.9848,4.987,4.9892,4.9888,4.9926,4.9926,4.9937,4.9936,4.9944,4.9943,4.9962,4.9952,4.9952,4.9952,4.9952,0,4.9551,4.9575,4.9617,4.9636,4.9664,4.9692,4.9718,4.9738,4.9765,4.9788,4.9807,4.9827,4.9855,4.9879,4.9896,4.9924,4.993,4.9941,4.9945,4.994,4.9938,4.9949,4.9949,4.9953,4.9953,4.9953,4.9953,0,4.9548,4.9577,4.9613,4.9655,4.9666,4.9684,4.9719,4.9738,4.9759,4.9788,4.9796,4.9828,4.9857,4.9881,4.9918,4.993,4.9959,4.9964,4.995,4.9952,4.9962,4.9961,4.9989,4.9994,4.998,4.9981,4.9981,0,4.9555,4.9574,4.9619,4.9638,4.9658,4.9686,4.9706,4.9733,4.9753,4.979,4.9804,4.9836,4.9862,4.9907,4.9933,4.9961,4.9967,4.9975,4.9972,4.9966,4.9968,4.9967,4.9969,4.9975,4.9975,4.9975,4.9975,0,4.9564,4.9578,4.9607,4.9642,4.9666,4.9694,4.9722,4.9735,4.9768,4.9789,4.9821,4.9842,4.9882,4.9912,4.9944,4.9962,4.9974,4.9976,4.9981,4.9975,4.9967,4.9972,4.9951,4.9975,4.9975,4.9975,4.9975,4.9975,4.9566,4.9585,4.9621,4.9653,4.9678,4.9705,4.9726,4.975,4.9778,4.9814,4.9829,4.9861,4.9891,4.9936,4.9955,4.998,4.9981,4.9987,4.9988,4.9989,4.9989,4.9963,4.9985,4.9985,4.9985,4.9985,4.9985,0,4.9577,4.9602,4.9631,4.9672,4.9698,4.971,4.9742,4.9762,4.9791,4.982,4.9846,4.9883,4.9913,4.9942,4.9973,4.9988,4.9994,4.9995,4.9994,4.9998,4.9986,4.9979,4.999,4.999,4.999,4.999,4.999,4.999,4.9586,4.9619,4.9638,4.9684,4.9708,4.9742,4.976,4.9784,4.9808,4.9849,4.9875,4.9895,4.9923,4.9957,4.9985,4.9993,5.0004,5.0004,5.0012,5.0,4.9999,4.9998,4.9993,5.0006,5.0006,5.0023,5.0024,5.0024]}]]